FLOCK 3P'-1 (43121 NORAD) Tracking and Keplerian Element Data

This shows tracking and keplerian element data for the satellite.

Feedback or suggestion? Click here.




ElementValue
Catalog43121
NameFLOCK 3P'-1
Epoch Orbit499
Epoch Day45.60352117
Epoch Year2018
RAAN107.8629
Inclination97.5507
Eccentricity0.0011223
Argument of Perigee156.3088
Mean Anonmoly203.8667
Mean Motion15.22036883
Decay Rate8.36E-06
L11 43121U 18004L 18045.60352117 .00000836 00000-0 39693-4 0 9998
L22 43121 97.5507 107.8629 0011223 156.3088 203.8667 15.22036883 4991

Live tracking and technical data element details for FLOCK 3P'-1 (NORAD 43121). FLOCK 3P'-1 can be tracked NOW for your location showing map with azimuth and elevation plus other details from your city location.

Track the satellite on the map from your city or location and see movement details for azimuth, elevation, latitude, longitude, range, height, and movement on the map or in text.







IsCatalogInMostPopularTable: catalog: 43121, numindb: 113
Update: records affected: 1



GetName: 43121 FLOCK 3P'-1

Hit Count: updated at: Sun, 16 Dec 2018 11:25:23 GMT